Home   Weather   Fregenal de la Sierra   Past weeks
Flag for Spain

Past Weather in Fregenal de la Sierra, Badajoz, Spain — Yesterday and Last 2 Weeks

Now
75 °F

Scattered clouds.


Feels Like: 75 °F
Forecast: 84 / 67 °F
Wind: 10 mph from South

Location: Rota Airport

Current Time: Jul 21, 2019 at 12:59:22 pm

Latest Report: Jul 21, 2019 at 12:27 pm


Visibility: N/A

Pressure: 30.04 "Hg

Humidity: 83%

Dew Point: 70 °F

Location of Fregenal de la SierraLocation

Past Weather in Fregenal de la Sierra — Graph

°F

Fregenal de la Sierra Temperature Yesterday

Maximum temperature yesterday: 82 °F (at 1:00 pm)
Minimum temperature yesterday: 72 °F (at 7:00 am)
Average temperature yesterday: 77 °F

High & Low Weather Summary for the Past Weeks

 TemperatureHumidityPressure
High90 °F (Jul 11, 1:00 pm)100% (Jul 21, 7:00 am)30.04 "Hg (Jul 21, 7:00 am)
Low63 °F (Jul 10, 5:00 am)36% (Jul 11, 1:00 pm)29.83 "Hg (Jul 19, 4:00 pm)
Average73 °F78%29.96 "Hg
* Reported Jul 6 12:00 pm — Jul 21 12:00 pm, Fregenal de la Sierra. Weather by CustomWeather, © 2019

Note: Actual official high and low records may vary slightly from our data, if they occured in-between our weather recording intervals... More about our weather records

Advertising

Fregenal de la Sierra Weather History for the Previous 24 Hours

Scroll right to see more
 ConditionsComfort  
Time TempWeatherWind HumidityBarometerVisibility
12:00 pm
Sun, Jul 21
75 °FPartly sunny.9 mph83%30.04 "Hg6 mi
11:00 am72 °FFog.9 mph94%30.04 "Hg2 mi
10:43 am70 °FFog.10 mph100%30.04 "Hg1 mi
10:26 am70 °FFog.9 mph100%30.04 "Hg1 mi
10:00 am70 °FFog.8 mph100%30.01 "Hg1 mi
9:00 am70 °FFog.8 mph100%30.01 "Hg0 mi
8:00 am72 °FFog.6 mph94%30.01 "Hg0 mi
7:33 am72 °FFog.3 mph94%30.01 "Hg1 mi
7:00 am70 °FFog.5 mph100%29.98 "Hg2 mi
6:37 am72 °FPassing clouds.5 mph94%29.98 "Hg4 mi
6:00 am72 °FClear.5 mph94%29.98 "Hg6 mi
5:00 am73 °FPassing clouds.8 mph89%29.98 "HgN/A
4:00 am75 °FPassing clouds.5 mph83%29.98 "HgN/A
3:00 am75 °FClear.7 mph83%30.01 "Hg10 mi
2:00 am75 °FClear.7 mph78%29.98 "Hg10 mi
1:00 am75 °FClear.5 mph78%29.98 "Hg10 mi
12:00 am75 °FClear.5 mph78%29.98 "Hg10 mi
11:00 pm
Sat, Jul 20
75 °FClear.2 mph74%29.98 "Hg10 mi
10:00 pm75 °FClear.7 mph78%29.95 "Hg10 mi
9:00 pm77 °FPassing clouds.10 mph79%29.92 "HgN/A
8:00 pm81 °FPassing clouds.12 mph66%29.89 "HgN/A
7:00 pm82 °FPassing clouds.12 mph62%29.89 "HgN/A
6:00 pm81 °FPassing clouds.13 mph70%29.92 "HgN/A
5:00 pm82 °FSunny.14 mph58%29.92 "Hg10 mi
4:00 pm81 °FPassing clouds.14 mph66%29.92 "HgN/A
3:00 pm81 °FPassing clouds.13 mph66%29.92 "HgN/A
2:00 pm81 °FPassing clouds.13 mph66%29.95 "HgN/A
1:00 pm82 °FPassing clouds.7 mph58%29.95 "HgN/A
12:00 pm81 °FPassing clouds.3 mph66%29.95 "HgN/A
Weather by CustomWeather, © 2019

See weather overview